EW3719 Weather Reports


Display with metric or nautical units.
time (UTC)temp
F
wind
direction
speed
MPH
gust
MPH
rain 1hr
in
rain 24hr
in
rain mn
in
humidity
%
barometer
mb
20260506040037 44 198 5.0 9.0 0.04 0.47 0.47 94 1009.8
20260506034543 45 199 3.0 9.0 0.05 0.47 0.47 94 1009.7
20260506033032 45 163 3.0 8.0 0.04 0.45 0.45 94 1010.0
20260506031542 45 221 5.0 8.0 0.05 0.44 0.44 94 1010.3
20260506030031 45 192 5.0 9.0 0.06 0.43 0.43 93 1009.9
20260506024529 45 165 4.0 9.0 0.06 0.42 0.42 93 1009.6
20260506023024 45 218 3.0 11.0 0.06 0.41 0.41 93 1009.4
20260506021522 46 250 4.0 11.0 0.07 0.39 0.39 92 1009.4
20260506020020 46 193 4.0 8.0 0.08 0.37 0.37 92 1009.3
20260506014516 46 167 3.0 9.0 0.10 0.36 0.36 92 1008.9
20260506013017 46 136 3.0 6.0 0.12 0.35 0.35 91 1008.8
20260506011516 47 217 1.0 4.0 0.11 0.32 0.32 91 1008.9
20260506010029 47 259 2.0 7.0 0.10 0.28 0.28 90 1008.7
20260506004506 47 243 3.0 7.0 0.09 0.26 0.26 90 1008.6
20260506003002 48 160 3.0 8.0 0.08 0.23 0.23 89 1008.6
20260506001502 48 238 5.0 10.0 0.08 0.21 0.21 89 1008.3
20260506000059 48 224 0.0 8.0 0.07 0.19 0.19 88 1007.8
20260505234554 49 255 2.0 8.0 0.05 0.17 0.17 85 1007.6
20260505233103 50 269 5.0 11.0 0.03 0.15 0.15 82 1007.4
20260505231546 52 288 8.0 17.0 0.01 0.13 0.13 76 1007.1
20260505230051 55 278 7.0 18.0 0.00 0.12 0.12 66 1006.6
20260505224543 57 262 9.0 19.0 0.00 0.12 0.12 60 1006.1
20260505223041 58 269 9.0 18.0 0.00 0.12 0.12 62 1005.7
20260505221534 57 318 6.0 11.0 0.00 0.12 0.12 70 1005.4
20260505220032 58 252 8.0 12.0 0.00 0.12 0.12 67 1005.0
20260505214531 59 245 7.0 16.0 0.00 0.12 0.12 65 1004.9
20260505213029 60 286 7.0 13.0 0.00 0.12 0.12 66 1004.6
20260505211524 60 266 6.0 13.0 0.00 0.12 0.12 70 1004.0
20260505210022 60 282 7.0 19.0 0.00 0.12 0.12 74 1003.5
20260505204521 62 283 10.0 18.0 0.00 0.12 0.12 73 1003.5
20260505203028 64 254 11.0 20.0 0.00 0.12 0.12 71 1003.3
20260505201519 65 240 11.0 26.0 0.00 0.12 0.12 69 1003.1
20260505200015 66 260 13.0 21.0 0.00 0.12 0.12 68 1002.7
20260505194515 66 249 12.0 25.0 0.00 0.12 0.12 68 1002.8
20260505193012 66 276 14.0 25.0 0.00 0.12 0.12 67 1002.6
20260505191512 66 257 16.0 26.0 0.00 0.12 0.12 67 1002.5
20260505190024 67 263 13.0 24.0 0.00 0.12 0.12 67 1002.5
20260505184610 66 248 15.0 27.0 0.00 0.12 0.12 68 1002.4
20260505183009 65 257 13.0 29.0 0.00 0.12 0.12 69 1002.5
20260505181508 66 255 19.0 29.0 0.00 0.12 0.12 67 1002.5
20260505180008 65 269 20.0 25.0 0.00 0.12 0.12 67 1002.5
20260505174507 65 257 16.0 25.0 0.00 0.12 0.12 68 1002.2
20260505173007 65 210 13.0 26.0 0.00 0.12 0.12 68 1002.2
20260505171506 64 274 13.0 26.0 0.00 0.12 0.12 70 1002.4
20260505170009 64 275 14.0 24.0 0.00 0.12 0.12 70 1002.5
20260505164503 65 236 19.0 36.0 0.00 0.12 0.12 68 1002.4
20260505163009 66 249 17.0 27.0 0.00 0.12 0.12 68 1002.3
20260505161502 65 246 12.0 27.0 0.00 0.12 0.12 70 1001.9
20260505153100 66 242 15.0 26.0 0.00 0.12 0.12 68 1001.5
20260505151618 66 239 15.0 31.0 0.00 0.12 0.12 68 1001.6
20260505124548 66 172 15.0 30.0 0.00 0.12 0.12 68 1000.5
20260505123040 65 224 11.0 25.0 0.00 0.12 0.12 71 1000.6
20260505121539 63 212 12.0 21.0 0.00 0.12 0.12 74 1000.7
20260505120058 63 214 12.0 21.0 0.00 0.14 0.12 75 1000.8
20260505114533 62 210 10.0 20.0 0.00 0.14 0.12 76 1000.8
20260505113035 62 205 10.0 18.0 0.00 0.14 0.12 78 1000.8
20260505111531 62 157 13.0 20.0 0.00 0.14 0.12 78 1000.7
20260505101528 59 216 8.0 15.0 0.03 0.14 0.12 85 1000.2
20260505100028 59 210 8.0 19.0 0.03 0.14 0.12 85 1000.6
20260505094527 59 228 12.0 22.0 0.03 0.14 0.12 83 1000.0
20260505093024 61 218 10.0 20.0 0.01 0.12 0.10 77 1000.6
20260505091527 62 214 10.0 18.0 0.00 0.11 0.09 72 1000.7
20260505090036 61 211 8.0 18.0 0.00 0.11 0.09 72 1000.5
20260505084518 60 171 8.0 16.0 0.00 0.11 0.09 73 1000.8
20260505083017 59 226 8.0 15.0 0.00 0.11 0.09 74 1001.1
20260505081517 59 163 5.0 11.0 0.00 0.11 0.09 75 1001.2
20260505080016 58 204 6.0 15.0 0.00 0.11 0.09 76 1001.3
20260505074515 56 207 8.0 15.0 0.03 0.11 0.09 80 1001.3
20260505073027 55 210 5.0 14.0 0.09 0.11 0.09 86 1001.3
20260505071518 54 175 5.0 10.0 0.09 0.11 0.09 90 1001.3
20260505070010 55 201 5.0 15.0 0.09 0.11 0.09 89 1001.3
20260505064518 56 214 13.0 20.0 0.05 0.07 0.05 81 1001.9
20260505063002 61 203 7.0 14.0 0.00 0.02 0.00 59 1001.1
20260505061501 61 203 4.0 13.0 0.00 0.02 0.00 58 1000.8
20260505060103 61 213 6.0 15.0 0.00 0.02 0.00 57 1001.2
20260505054625 61 150 8.0 16.0 0.00 0.02 0.00 56 1000.9
20260505053103 60 185 5.0 12.0 0.00 0.02 0.00 57 1001.3
20260505051550 60 199 4.0 8.0 0.00 0.02 0.00 58 1001.3
20260505041545 59 151 3.0 5.0 0.00 0.04 0.00 58 1001.8